Location: Unspecified
(17.6330°N, 0.0000°E)
Time: 07:51:38
(UTC+00:00)

Courier 1B Rocket - Pass Details

Date: 27 June 2019
Orbit: 920 x 1202 km, 28.2° (Epoch: 19 July)

Event Time Altitude Azimuth Distance (km) Brightness Sun altitude
Exits shadow 04:18:42 - 290° (WNW) 3,649 7.6 -15.3°
Reaches altitude 10° 04:20:59 10° 298° (WNW) 2,931 7.2 -14.9°
Maximum altitude 04:27:21 34° 1° (N) 1,645 6.5 -13.6°
Drops below altitude 10° 04:33:20 10° 64° (ENE) 2,744 8.9 -12.3°
Sets 04:36:11 0° 74° (ENE) 3,653 9.8 -11.7°
